Location: Ar Ranvel
(48.3000°N, 4.8833°W)
Time: 09:44:58
(UTC+00:00)

JB-3 - Pass Details

Date: 16 June 2021
Orbit: 527 x 587 km, 97.3° (Epoch: 27 July)

Event Time Altitude Azimuth Distance (km) Brightness Sun altitude
Rises 21:34:57 0° 13° (NNE) 2,716 8.5 -9.3°
Reaches altitude 10° 21:37:04 10° 15° (NNE) 1,827 7.5 -9.5°
Maximum altitude 21:41:02 78° 102° (ESE) 572 4.3 -9.9°
Drops below altitude 10° 21:45:02 10° 189° (S) 1,847 6.6 -10.3°
Enters shadow 21:45:59 - 190° (S) 2,244 7.0 -10.4°
